Skip Page Navigation
NASA JPL Caltech
NASA Logo - Jet Propulsion Laboratory + View the NASA Portal
+ Center for Near-Earth Object Studies
JPL Home Earth Solar System Stars & Galaxies Technology
JPL Solar System Dynamics
BODIES ORBITS EPHEMERIDES TOOLS PHYSICAL DATA DISCOVERY FAQ SITE MAP
JPL Small-Body Database Browser
Search: [ help ]  
(2015 DK200)
Classification: Apollo [NEO]          SPK-ID: 3712627
Ephemeris | Orbit Diagram | Orbital Elements | Mission Design | Physical Parameters | Close-Approach Data ]

[ hide orbit diagram ]

For accurate long-term ephemerides, please instead use our Horizons system.This orbit viewer was implemented using two-body methods, and hence should not be used for determining accurate long-term trajectories (over several years or decades) or planetary encounter circumstances.


Orbital Elements at Epoch 2459200.5 (2020-Dec-17.0) TDB
Reference: JPL 12 (heliocentric ecliptic J2000)
 Element Value Uncertainty (1-sigma)   Units 
e .3257239537471991 3.0383e-07  
a 1.313086415255556 7.2913e-09 au
q .8853827164667795 3.9732e-07 au
i 1.85760409227924 1.471e-05 deg
node 14.98872158212347 0.00033484 deg
peri 208.5015126272932 0.0003907 deg
M 275.0748574003664 3.1094e-05 deg
tp 2459330.149896175180
(2021-Apr-25.64989618)
4.7914e-05 TDB
period 549.5894524793671
1.50
4.5777e-06
1.253e-08
d
yr
n .6550344050016412 5.4559e-09 deg/d
Q 1.740790114044332 9.6663e-09 au
  Orbit Determination Parameters
   # obs. used (total)      40  
   data-arc span      1111 days (3.04 yr)  
   first obs. used      2015-02-20  
   last obs. used      2018-03-07  
   planetary ephem.      DE431  
   SB-pert. ephem.      SB431-N16  
   condition code      0  
   norm. resid. RMS      .6572  
   source      ORB  
   producer      Otto Matic  
   solution date      2018-Mar-07 05:12:06  

Additional Information
 Earth MOID = .014743 au 
 Jupiter MOID = 3.23833 au 
 T_jup = 4.912 
[ show covariance matrix ]

Ephemeris | Orbit Diagram | Orbital Elements | Mission Design | Physical Parameters | Close-Approach Data ]

Physical Parameter Table
Parameter Symbol Value Units Sigma Reference Notes
absolute magnitude H 25.6   n/a E2015L43  

[ show close-approach data ]
Ephemeris | Orbit Diagram | Orbital Elements | Mission Design | Physical Parameters | Close-Approach Data ]
ABOUT SSD CREDITS/AWARDS PRIVACY/COPYRIGHT GLOSSARY LINKS
FirstGov 2021-Mar-08 13:51 UT
(server date/time)  
NASA Home Page
Site Manager:   Ryan S. Park
Webmaster  Alan B. Chamberlin